Location: Blackwater Beach
(38.5801°N, 75.1577°W)
Time: 02:47:12
(UTC+00:00)

Cosmos 2297 Rocket - Pass Details

Date: 21 May 2026
Orbit: 838 x 842 km, 71.0° (Epoch: 9 June)

Event Time Altitude Azimuth Distance (km) Brightness Sun altitude
Exits shadow 04:56:30 14° 277° (W) 2,203 4.4 -31.2°
Maximum altitude 04:59:02 18° 308° (NW) 1,964 4.4 -31.2°
Drops below altitude 10° 05:02:46 10° 349° (N) 2,461 5.5 -31.2°
Sets 05:06:04 0° 9° (N) 3,400 6.5 -31.2°
